軌道要素
Epoch 2005 Nov. 6.0 TT = JDT 2453680.5
T 2005 Nov. 3.96383 TT MPC
q 1.9190782 (2000.0) P Q
n 0.12961704 Peri. 152.30625 +0.34397097 -0.89436629
a 3.8668854 Node 276.37790 +0.79951434 +0.43868785
e 0.5037147 Incl. 16.72484 +0.49240307 -0.08753231
P 7.60
From 160 observations 2005 Sept. 15-2013 Jan. 18, mean residual 0".6.
|